Tracking 27097 objects as of 29-Mar-2023
HD Live streaming from Space Station
objects crossing your sky now

STARLINK-4739

Track STARLINK-4739 now!
10-day predictions
STARLINK-4739 is classified as:


NORAD ID: 53792
Int'l Code: 2022-111V
Perigee: 545.7 km
Apogee: 547.9 km
Inclination: 53.2 °
Period: 95.4 minutes
Semi major axis: 6917 km
RCS: Unknown
Launch date: September 11, 2022
Source: United States (US)
Launch site: AIR FORCE EASTERN TEST RANGE (AFETR)
Your satellite tracking list
Your tracking list is empty




NASA's NSSDC Master Catalog

Two Line Element Set (TLE):
1 53792U 22111V   23087.45835115  .00000501  00000-0  49545-4 0  9992
2 53792  53.2187  69.8035 0001641 106.0051 254.1122 15.08863398 31068
Source of the keplerian elements: AFSPC